Weather History for Del Bajio, Mexico

Change the Weather History Date:

Monday, April 21, 2014

  Actual Average Record
Temperature  
Mean Temperature 73 °F -  
Max Temperature 89 °F 87 °F 96 °F (2006)
Min Temperature 57 °F 55 °F 50 °F (1997)
Cooling Degree Days 8    
Growing Degree Days 23 (Base 50)    
Moisture  
Dew Point 44 °F    
Average Humidity 40    
Maximum Humidity 63    
Minimum Humidity 18    
Precipitation  
Precipitation 0.00 in - - ()
Sea Level Pressure  
Sea Level Pressure 30.11 in    
Wind  
Wind Speed 7 mph ()    
Max Wind Speed 17 mph    
Max Gust Speed 24 mph    
Visibility 9.0 miles    
Events      
Averages and records for this station are not official NWS values.
T = Trace of Precipitation, MM = Missing Value Source: Averaged Metar Reports

Daily Weather History Graph

Daily Weather History Graph

Search for Another Location

Airport:

Trip Planner

Search our weather history database for the weather conditions in past years. The results will help you decide how hot, cold, wet, or windy it might be!

Date:

Astronomy

Apr. 21, 2014 Rise Set
Actual Time 7:22 AM CDT 8:07 PM CDT
Civil Twilight 6:59 AM CDT 8:29 PM CDT
Nautical Twilight 6:32 AM CDT 8:56 PM CDT
Astronomical Twilight 6:05 AM CDT 9:24 PM CDT
Moon 1:28 AM CDT (4/21) 1:00 PM CDT (4/21)
Length of Visible Light 13h 30m
Length of Day
12h 44m
Waning Gibbous, 57% of the Moon is Illuminated
Apr 21
Waning Gibbous
Apr 22
Last Quarter
Apr 29
New
May 6
First Quarter
May 14
Full

Hourly Weather History & Observations

Time (CDT) Temp. Dew Point Humidity Pressure Visibility Wind Dir Wind Speed Gust Speed Precip Events Conditions
12:45 AM 69.8 °F 46.4 °F 43% 29.82 in 8.0 mi NNE 12.7 mph 24.2 mph N/A   Mostly Cloudy
1:45 AM 66.2 °F 46.4 °F 49% 30.27 in 8.0 mi NNE 15.0 mph - N/A   Mostly Cloudy
2:45 AM 64.4 °F 44.6 °F 49% 30.27 in 8.0 mi ENE 6.9 mph - N/A   Mostly Cloudy
3:43 AM 62.6 °F 46.4 °F 55% 29.77 in 8.0 mi East 4.6 mph - N/A   Scattered Clouds
4:43 AM 62.6 °F 46.4 °F 55% 30.27 in 8.0 mi ENE 4.6 mph - N/A   Scattered Clouds
5:43 AM 66.2 °F 46.4 °F 49% 30.27 in 8.0 mi NE 3.5 mph - N/A   Scattered Clouds
6:47 AM 59.0 °F 44.6 °F 59% 29.86 in 8.0 mi NE 6.9 mph - N/A   Scattered Clouds
7:42 AM 57.2 °F 44.6 °F 63% 30.29 in 10.0 mi NE 4.6 mph - N/A   Mostly Cloudy
8:40 AM 66.2 °F 44.6 °F 46% 30.29 in 10.0 mi Calm Calm - N/A   Mostly Cloudy
9:43 AM 73.4 °F 42.8 °F 33% 29.88 in 10.0 mi Calm Calm - N/A   Mostly Cloudy
10:41 AM 78.8 °F 42.8 °F 28% 30.29 in 10.0 mi South 3.5 mph - N/A   Mostly Cloudy
11:51 AM 80.6 °F 44.6 °F 28% 30.29 in 10.0 mi SW 4.6 mph - N/A   Mostly Cloudy
12:46 PM 84.2 °F 44.6 °F 25% 29.79 in 10.0 mi Calm Calm - N/A   Mostly Cloudy
1:42 PM 86.0 °F 42.8 °F 22% 30.24 in 10.0 mi SW 4.6 mph - N/A   Mostly Cloudy
2:53 PM 89.6 °F 41.0 °F 18% 30.18 in 10.0 mi NW 6.9 mph - N/A   Mostly Cloudy
3:45 PM 84.2 °F 39.2 °F 20% 29.71 in 10.0 mi ENE 11.5 mph - N/A   Mostly Cloudy
4:43 PM 80.6 °F 39.2 °F 23% 30.15 in 10.0 mi NE 17.3 mph - N/A   Overcast
5:45 PM 78.8 °F 39.2 °F 24% 30.15 in 10.0 mi ENE 9.2 mph - N/A   Overcast
7:47 PM 77.0 °F 37.4 °F 24% 30.18 in 10.0 mi West 8.1 mph - N/A   Overcast
8:44 PM 64.4 °F 46.4 °F 52% 30.24 in 8.0 mi NNW 10.4 mph - N/A   Overcast
9:47 PM 66.2 °F 48.2 °F 52% 29.92 in 8.0 mi ENE 6.9 mph - N/A   Overcast
10:44 PM 66.2 °F 46.4 °F 49% 30.24 in 8.0 mi East 6.9 mph - N/A   Overcast
11:43 PM 66.2 °F 48.2 °F 52% 30.24 in 8.0 mi East 5.8 mph - N/A   Overcast